QPF
0.00 0.00 0.00 0.00 0.00 0.00 0.00 0.00 0.00 0.00 0.00 0.00 0.00 0.00 0.00 0.00 0.00 0.00 0.00 0.00 0.00 0.02 0.05 0.06 0.07 0.07 0.07 0.06 0.05 0.03 0.01 0.00
0.00 0.00 0.00 0.00 0.00 0.00 0.00 0.00 0.00 0.00 0.00 0.00 0.00 0.00 0.00 0.00 0.00 0.00 0.00 0.00 0.00 0.00 0.01 0.03 0.05 0.07 0.07 0.07 0.07 0.07 0.05 0.04
0.00 0.00 0.00 0.00 0.00 0.00 0.00 0.00 0.00 0.00 0.00 0.00 0.00 0.00 0.00 0.00 0.00 0.00 0.00 0.00 0.00 0.00 0.00 0.01 0.03 0.05 0.09 0.12 0.12 0.09 0.06 0.07
0.00 0.00 0.00 0.00 0.00 0.00 0.00 0.00 0.00 0.00 0.00 0.00 0.00 0.00 0.00 0.00 0.00 0.00 0.00 0.00 0.00 0.00 0.00 0.00 0.01 0.02 0.05 0.09 0.11 0.15 0.14 0.09
0.00 0.00 0.00 0.00 0.00 0.00 0.00 0.00 0.00 0.00 0.00 0.00 0.00 0.00 0.00 0.00 0.00 0.00 0.00 0.00 0.00 0.00 0.00 0.00 0.00 0.01 0.01 0.03 0.05 0.08 0.12 0.12
0.00 0.00 0.00 0.00 0.00 0.00 0.00 0.00 0.00 0.00 0.00 0.00 0.00 0.00 0.00 0.00 0.00 0.00 0.00 0.00 0.00 0.00 0.00 0.00 0.00 0.00 0.00 0.00 0.01 0.01 0.03 0.05
0.00 0.00 0.00 0.00 0.00 0.00 0.00 0.00 0.00 0.00 0.00 0.00 0.00 0.00 0.00 0.00 0.00 0.00 0.00 0.00 0.00 0.00 0.00 0.00 0.00 0.00 0.00 0.00 0.00 0.01 0.01 0.01
0.00 0.00 0.00 0.00 0.00 0.00 0.00 0.00 0.00 0.00 0.00 0.00 0.00 0.00 0.00 0.00 0.00 0.00 0.00 0.00 0.00 0.00 0.00 0.00 0.00 0.00 0.00 0.00 0.00 0.00 0.00 0.00
0.00 0.00 0.00 0.00 0.00 0.00 0.00 0.00 0.00 0.00 0.00 0.00 0.00 0.00 0.00 0.00 0.00 0.00 0.00 0.00 0.00 0.00 0.00 0.00 0.00 0.00 0.00 0.00 0.00 0.00 0.00 0.00
0.00 0.00 0.00 0.00 0.00 0.00 0.00 0.00 0.00 0.00 0.00 0.00 0.00 0.00 0.00 0.00 0.00 0.00 0.00 0.00 0.00 0.00 0.00 0.00 0.00 0.00 0.00 0.00 0.00 0.00 0.00 0.00
0.00 0.00 0.00 0.00 0.00 0.00 0.00 0.00 0.00 0.00 0.00 0.00 0.00 0.00 0.00 0.00 0.00 0.00 0.00 0.00 0.00 0.00 0.00 0.00 0.00 0.00 0.00 0.00 0.00 0.00 0.00 0.00
0.00 0.00 0.00 0.00 0.00 0.00 0.00 0.00 0.00 0.00 0.00 0.00 0.00 0.00 0.00 0.00 0.00 0.00 0.00 0.00 0.00 0.00 0.00 0.00 0.00 0.00 0.00 0.00 0.00 0.00 0.00 0.00
0.00 0.00 0.00 0.00 0.00 0.00 0.00 0.00 0.00 0.00 0.00 0.00 0.00 0.00 0.00 0.00 0.00 0.00 0.00 0.00 0.00 0.00 0.00 0.00 0.00 0.00 0.00 0.00 0.00 0.00 0.00 0.00
0.00 0.00 0.00 0.00 0.00 0.00 0.00 0.00 0.00 0.00 0.00 0.00 0.00 0.00 0.00 0.00 0.00 0.00 0.00 0.00 0.00 0.00 0.00 0.00 0.00 0.00 0.00 0.00 0.00 0.00 0.00 0.00
0.00 0.00 0.00 0.00 0.00 0.00 0.00 0.00 0.00 0.00 0.00 0.00 0.00 0.00 0.00 0.00 0.00 0.00 0.00 0.00 0.00 0.00 0.00 0.00 0.00 0.00 0.00 0.00 0.00 0.00 0.00 0.00
0.00 0.00 0.00 0.00 0.00 0.00 0.00 0.00 0.00 0.00 0.00 0.00 0.00 0.00 0.00 0.00 0.00 0.00 0.00 0.00 0.00 0.00 0.00 0.00 0.00 0.00 0.00 0.00 0.00 0.00 0.00 0.00
0.00 0.00 0.00 0.00 0.00 0.00 0.00 0.00 0.00 0.00 0.00 0.00 0.00 0.00 0.00 0.00 0.00 0.00 0.00 0.00 0.00 0.00 0.00 0.00 0.00 0.00 0.00 0.00 0.00 0.00 0.00 0.00
0.00 0.00 0.00 0.00 0.00 0.00 0.00 0.00 0.00 0.00 0.00 0.00 0.00 0.00 0.00 0.00 0.00 0.00 0.00 0.00 0.00 0.00 0.00 0.00 0.00 0.00 0.00 0.00 0.00 0.00 0.00 0.00
0.00 0.00 0.00 0.00 0.00 0.00 0.00 0.00 0.00 0.00 0.00 0.00 0.00 0.00 0.00 0.00 0.00 0.00 0.00 0.00 0.00 0.00 0.00 0.00 0.00 0.00 0.00 0.00 0.00 0.00 0.00 0.00
MSLP
1021.23 1021.70 1021.70 1021.41 1021.30 1021.17 1021.04 1020.93 1020.67 1019.94 1019.51 1018.87 1018.64 1018.58 1019.06 1019.56 1019.94 1020.20 1020.12 1019.99 1020.03 1019.83 1019.44 1019.12 1018.49 1017.94 1017.04 1016.17 1015.48 1015.04 1014.17 1013.63
1021.22 1021.53 1021.87 1022.01 1022.26 1021.98 1021.67 1021.69 1021.51 1020.82 1020.57 1020.00 1019.51 1019.24 1019.53 1019.60 1019.87 1020.49 1020.37 1020.28 1020.23 1020.27 1020.04 1019.79 1019.32 1018.86 1018.63 1017.93 1016.82 1015.64 1014.74 1014.37
1021.75 1022.04 1022.13 1022.16 1022.30 1022.20 1022.10 1022.11 1022.01 1021.69 1021.33 1020.99 1020.66 1020.25 1020.27 1020.23 1020.37 1020.41 1020.81 1020.81 1020.74 1020.44 1020.50 1020.22 1020.16 1019.68 1019.26 1018.88 1018.39 1017.44 1016.03 1015.22
1021.35 1021.85 1022.14 1022.28 1022.51 1022.40 1022.29 1022.28 1022.38 1022.52 1022.14 1021.71 1021.24 1020.74 1020.66 1020.85 1020.79 1020.81 1021.00 1021.07 1021.11 1020.99 1020.88 1020.66 1020.39 1020.39 1020.23 1019.82 1019.49 1018.73 1017.69 1016.63
1021.14 1021.60 1021.98 1022.21 1022.57 1022.79 1022.76 1022.80 1022.93 1022.91 1022.94 1022.45 1022.21 1021.63 1021.50 1021.74 1021.62 1021.61 1021.14 1021.34 1021.38 1021.28 1021.26 1021.12 1020.91 1020.78 1020.58 1020.48 1020.21 1019.56 1018.99 1018.36
1021.18 1021.67 1022.00 1022.37 1022.59 1022.97 1023.10 1023.14 1023.38 1023.41 1023.50 1023.41 1023.03 1022.79 1022.49 1022.43 1022.31 1022.07 1021.82 1021.82 1021.85 1021.95 1021.59 1021.42 1021.26 1020.97 1020.87 1020.61 1020.16 1019.84 1019.62 1019.54
1021.32 1021.84 1022.10 1022.51 1023.00 1023.37 1023.47 1023.31 1023.67 1023.87 1023.87 1023.93 1023.79 1023.59 1023.23 1023.12 1022.86 1022.56 1022.37 1022.27 1022.13 1022.32 1021.97 1021.78 1021.57 1021.32 1021.05 1020.80 1020.31 1019.91 1019.85 1019.49
1021.24 1021.60 1021.90 1022.69 1023.21 1023.46 1023.30 1023.39 1023.56 1023.94 1024.20 1024.21 1024.12 1023.86 1023.83 1023.55 1023.39 1023.23 1023.01 1022.75 1022.77 1022.80 1022.48 1022.01 1021.64 1021.46 1021.33 1020.79 1020.38 1020.26 1020.16 1019.71
1020.84 1021.40 1022.03 1022.75 1023.28 1023.50 1023.51 1023.69 1023.85 1024.28 1024.52 1024.37 1024.40 1024.39 1024.20 1024.15 1024.08 1023.78 1023.62 1023.54 1023.31 1023.30 1022.86 1022.47 1022.12 1021.92 1021.58 1021.24 1020.65 1020.41 1020.32 1019.93
1020.50 1021.29 1022.04 1022.58 1023.17 1023.74 1023.91 1023.89 1024.15 1024.48 1024.53 1024.65 1024.73 1024.82 1024.67 1024.64 1024.47 1024.23 1024.04 1023.90 1023.65 1023.59 1023.31 1022.97 1022.59 1022.29 1021.91 1021.63 1021.26 1020.87 1020.76 1020.29
1020.12 1020.94 1021.78 1022.39 1023.10 1023.81 1024.16 1024.11 1024.31 1024.76 1024.95 1025.10 1025.12 1025.10 1025.05 1024.92 1024.85 1024.73 1024.66 1024.48 1024.26 1023.93 1023.60 1023.25 1022.86 1022.52 1022.37 1022.09 1021.80 1021.36 1021.24 1020.81
1019.81 1020.55 1021.45 1022.22 1022.90 1023.50 1024.06 1024.34 1024.63 1024.94 1025.19 1025.34 1025.41 1025.42 1025.36 1025.25 1025.17 1025.10 1025.08 1024.83 1024.54 1024.22 1023.89 1023.47 1023.11 1022.88 1022.70 1022.47 1022.33 1021.88 1021.71 1021.25
1019.32 1020.24 1021.15 1021.97 1022.71 1023.31 1024.02 1024.54 1024.69 1025.11 1025.26 1025.41 1025.58 1025.65 1025.62 1025.50 1025.44 1025.40 1025.34 1025.08 1024.68 1024.34 1023.95 1023.64 1023.36 1023.14 1022.86 1022.65 1022.64 1022.45 1022.02 1021.45
1018.88 1019.94 1020.83 1021.62 1022.41 1023.14 1023.69 1024.24 1024.63 1025.05 1025.19 1025.32 1025.55 1025.70 1025.71 1025.67 1025.62 1025.52 1025.31 1025.16 1024.72 1024.40 1024.12 1023.86 1023.58 1023.35 1023.11 1022.99 1023.14 1022.81 1022.28 1021.69
1018.42 1019.43 1020.35 1021.26 1022.07 1022.87 1023.48 1024.06 1024.64 1025.01 1025.25 1025.33 1025.56 1025.80 1025.81 1025.77 1025.70 1025.59 1025.37 1025.15 1024.73 1024.42 1024.17 1023.92 1023.67 1023.36 1023.19 1023.56 1023.49 1023.13 1022.43 1021.68
1017.95 1018.89 1019.88 1020.85 1021.74 1022.57 1023.27 1023.81 1024.51 1025.00 1025.21 1025.34 1025.61 1025.77 1025.74 1025.79 1025.76 1025.61 1025.37 1025.16 1024.81 1024.46 1024.15 1023.94 1023.73 1023.46 1023.74 1024.27 1023.97 1023.34 1022.52 1021.51
1017.44 1018.47 1019.47 1020.43 1021.36 1022.21 1022.98 1023.62 1024.30 1024.81 1025.01 1025.29 1025.54 1025.65 1025.67 1025.76 1025.71 1025.59 1025.35 1025.09 1024.79 1024.49 1024.19 1023.94 1023.69 1023.48 1024.27 1024.37 1024.23 1023.56 1022.48 1021.50
1016.85 1018.00 1019.05 1020.05 1021.04 1021.95 1022.71 1023.38 1024.07 1024.53 1024.81 1025.20 1025.46 1025.55 1025.61 1025.82 1025.75 1025.65 1025.51 1025.23 1024.84 1024.50 1024.22 1023.97 1023.69 1023.57 1024.02 1024.12 1024.25 1023.57 1022.34 1021.36
1016.30 1017.52 1018.63 1019.73 1020.71 1021.68 1022.40 1023.05 1023.71 1024.19 1024.43 1024.80 1025.22 1025.41 1025.47 1025.69 1025.76 1025.91 1025.75 1025.27 1024.88 1024.52 1024.22 1023.93 1023.75 1023.62 1023.97 1024.26 1024.18 1023.09 1022.22 1021.48
Thickness
5628 5627 5630 5635 5638 5640 5642 5644 5646 5653 5655 5660 5662 5662 5658 5655 5652 5651 5651 5652 5653 5655 5657 5661 5665 5668 5674 5681 5687 5691 5698 5701
5623 5623 5622 5622 5622 5627 5629 5629 5630 5636 5637 5641 5645 5647 5645 5645 5642 5638 5639 5640 5641 5641 5643 5644 5648 5651 5651 5654 5664 5675 5683 5685
5609 5610 5613 5615 5614 5617 5618 5617 5617 5619 5622 5625 5627 5630 5629 5630 5628 5627 5624 5625 5625 5628 5627 5629 5629 5633 5634 5636 5640 5646 5659 5667
5606 5605 5604 5605 5604 5607 5608 5609 5608 5605 5606 5609 5613 5616 5616 5615 5616 5615 5611 5610 5609 5610 5611 5612 5613 5613 5613 5616 5617 5622 5632 5642
5602 5600 5599 5599 5596 5596 5597 5597 5595 5594 5593 5595 5596 5599 5599 5597 5597 5596 5599 5597 5596 5595 5593 5594 5595 5595 5596 5595 5597 5602 5605 5609
5594 5593 5591 5590 5589 5586 5586 5586 5583 5583 5580 5579 5581 5581 5583 5582 5581 5581 5581 5579 5578 5576 5578 5577 5576 5577 5576 5578 5580 5582 5583 5584
5588 5585 5585 5582 5578 5576 5577 5579 5575 5573 5572 5569 5568 5568 5569 5567 5567 5567 5567 5565 5564 5560 5560 5559 5558 5557 5557 5557 5560 5563 5563 5566
5580 5580 5580 5574 5572 5571 5573 5572 5569 5565 5561 5560 5558 5558 5556 5556 5555 5554 5554 5554 5552 5548 5547 5547 5546 5542 5538 5539 5540 5539 5539 5544
5579 5577 5574 5569 5566 5566 5566 5565 5563 5558 5554 5553 5550 5548 5546 5544 5544 5544 5543 5541 5541 5538 5537 5536 5533 5529 5524 5521 5521 5520 5518 5521
5577 5574 5569 5567 5563 5559 5558 5557 5555 5551 5550 5547 5543 5540 5539 5537 5536 5536 5535 5533 5532 5528 5527 5525 5523 5520 5518 5514 5511 5509 5505 5505
5576 5572 5566 5563 5558 5553 5550 5551 5548 5544 5540 5537 5535 5534 5532 5531 5529 5527 5524 5522 5521 5520 5518 5517 5515 5513 5509 5506 5503 5501 5497 5496
5573 5570 5564 5559 5555 5550 5545 5542 5539 5536 5533 5530 5528 5526 5524 5522 5521 5519 5516 5515 5514 5513 5512 5511 5509 5506 5502 5499 5494 5493 5488 5487
5573 5568 5562 5556 5551 5546 5540 5535 5533 5529 5527 5524 5521 5519 5517 5516 5514 5512 5510 5509 5510 5508 5508 5506 5504 5500 5497 5494 5488 5484 5481 5480
5573 5566 5560 5555 5549 5543 5539 5533 5529 5525 5523 5521 5518 5515 5513 5511 5509 5507 5506 5505 5505 5504 5502 5499 5497 5494 5491 5487 5479 5476 5474 5472
5573 5566 5560 5554 5548 5542 5537 5531 5526 5522 5519 5517 5514 5510 5509 5507 5505 5503 5502 5501 5500 5499 5496 5493 5490 5488 5485 5476 5470 5466 5465 5464
5572 5566 5560 5553 5547 5541 5535 5530 5523 5518 5515 5513 5509 5507 5505 5503 5500 5498 5497 5495 5494 5493 5490 5487 5483 5480 5474 5466 5460 5457 5455 5455
5572 5565 5559 5552 5545 5539 5533 5527 5520 5515 5513 5509 5506 5504 5502 5498 5496 5494 5492 5490 5489 5486 5484 5480 5477 5473 5463 5455 5448 5445 5443 5441
5572 5564 5558 5550 5543 5536 5529 5523 5517 5513 5510 5505 5502 5500 5497 5493 5490 5488 5486 5484 5483 5480 5477 5473 5470 5465 5455 5447 5438 5434 5432 5429
5572 5565 5557 5549 5542 5534 5527 5521 5515 5511 5508 5504 5499 5496 5494 5489 5485 5480 5478 5477 5476 5473 5469 5465 5460 5456 5447 5437 5428 5426 5421 5414